Jackson Hawkins Field, MS

3:42 AM CDT on May 30, 2017 (GMT -0500)
Hawkins

Weather History for KHKS - March, 2013

Change the Weather History Date:

Thursday, March 7, 2013

  Actual Average Record
Temperature  
Mean Temperature 48 °F 56 °F  
Max Temperature 60 °F 66 °F 81 °F (2009)
Min Temperature 36 °F 45 °F 27 °F (2015)
Degree Days  
Heating Degree Days 17 10  
Month to date heating degree days 75  
Since 1 July heating degree days 1938  
Cooling Degree Days 0 1  
Month to date cooling degree days 7  
Year to date cooling degree days 19  
Moisture  
Dew Point 31 °F    
Average Humidity 59    
Maximum Humidity 79    
Minimum Humidity 32    
Precipitation  
Precipitation 0.00 in 0.17 in 1.15 in (2005)
Month to date precipitation 1.17  
Year to date precipitation 10.57  
Sea Level Pressure  
Sea Level Pressure 30.28 in    
Wind  
Wind Speed 2 mph (ENE)    
Max Wind Speed 8 mph    
Max Gust Speed -    
Visibility 10 miles    
Events      
T = Trace of Precipitation, MM = Missing Value Source: NWS Daily Summary

Daily Weather History Graph

Daily Weather History Graph

Search for Another Location

Airport or City:

Trip Planner

Search our weather history database for the weather conditions in past years. The results will help you decide how hot, cold, wet, or windy it might be!

Date:

Astronomy

Mar. 07, 2013 Rise Set
Actual Time 6:20 AM CST 6:03 PM CST
Civil Twilight 5:56 AM CST 6:27 PM CST
Nautical Twilight 5:27 AM CST 6:56 PM CST
Astronomical Twilight 4:59 AM CST 7:24 PM CST
Moon 3:08 AM CST (3/7) 2:02 PM CST (3/7)
Length of Visible Light 12h 31m
Length of Day
11h 42m
Waning Crescent, 20% of the Moon is Illuminated
Mar 7
Waning Crescent
Mar 11
New
Mar 19
First Quarter
Mar 27
Full
Apr 2
Last Quarter

Hourly Weather History & Observations

Time (CST) Temp. Windchill Dew Point Humidity Pressure Visibility Wind Dir Wind Speed Gust Speed Precip Events Conditions
12:53 AM 37.9 °F - 28.9 °F 70% 30.28 in 10.0 mi Calm Calm - N/A   Clear
1:53 AM 37.9 °F 34.4 °F 28.9 °F 70% 30.28 in 10.0 mi NE 4.6 mph - N/A   Clear
2:53 AM 37.0 °F - 30.0 °F 76% 30.27 in 10.0 mi Calm Calm - N/A   Clear
3:53 AM 36.0 °F - 30.0 °F 79% 30.27 in 10.0 mi Calm Calm - N/A   Clear
4:53 AM 37.0 °F 32.4 °F 28.9 °F 73% 30.29 in 10.0 mi East 5.8 mph - N/A   Clear
5:53 AM 37.0 °F 31.6 °F 28.9 °F 73% 30.30 in 10.0 mi East 6.9 mph - N/A   Clear
6:53 AM 37.0 °F 34.5 °F 28.0 °F 70% 30.33 in 10.0 mi East 3.5 mph - N/A   Clear
7:53 AM 39.0 °F 33.4 °F 28.0 °F 65% 30.35 in 10.0 mi ENE 8.1 mph - N/A   Clear
8:53 AM 45.0 °F 41.8 °F 28.9 °F 53% 30.37 in 10.0 mi East 5.8 mph - N/A   Clear
11:53 AM 54.0 °F - 28.0 °F 37% 30.33 in 10.0 mi North 4.6 mph - N/A   Clear
12:53 PM 55.9 °F - 28.0 °F 34% 30.29 in 10.0 mi Calm Calm - N/A   Unknown
2:53 PM 59.0 °F - 30.0 °F 33% 30.26 in 10.0 mi Calm Calm - N/A   Clear
3:53 PM 60.1 °F - 30.0 °F 32% 30.25 in 10.0 mi Calm Calm - N/A   Unknown
4:53 PM 60.1 °F - 30.0 °F 32% 30.24 in 10.0 mi Calm Calm - N/A   Clear
5:53 PM 57.9 °F - 32.0 °F 37% 30.24 in 10.0 mi North 3.5 mph - N/A   Clear
6:53 PM 54.0 °F - 33.1 °F 45% 30.26 in 10.0 mi Calm Calm - N/A   Clear
7:53 PM 48.0 °F - 35.1 °F 61% 30.26 in 10.0 mi Calm Calm - N/A   Clear
8:53 PM 46.0 °F - 35.1 °F 66% 30.25 in 10.0 mi Calm Calm - N/A   Clear
9:53 PM 45.0 °F - 36.0 °F 71% 30.25 in 10.0 mi Calm Calm - N/A   Clear
10:53 PM 43.0 °F - 36.0 °F 76% 30.25 in 10.0 mi Calm Calm - N/A   Unknown
11:53 PM 42.1 °F - 36.0 °F 79% 30.25 in 10.0 mi Calm Calm - N/A   Clear